When you browse on this site, cookies collect data to enhance your experience and personalize the content and advertising you see.
Visit our Privacy Policy to learn more. By continuing to use the site, you agree to this use of cookies and data.
  • In Hungary
  • List of Countries
  • For 7 days
  • Water Temperature
  • Weather Map
  • News
  • Weather Widgets
  • user-avatar
    Login

    Hourly Weather Stavok

    Today, 22 August, Thursday

    Time Temperature Precipitation Wind Pressure Humidity
    00:00 +21°C° 0 mm 2 mps 754 mmHg 68%
    01:00 +21°C° 0 mm 2 mps 754 mmHg 70%
    02:00 +21°C° 0 mm 1 mps 754 mmHg 73%
    03:00 +21°C° 0 mm 1 mps 754 mmHg 74%
    04:00 +20°C° 0 mm 1 mps 754 mmHg 75%
    05:00 +20°C° 0 mm 1 mps 754 mmHg 76%
    06:00 +20°C° 0 mm 2 mps 755 mmHg 74%
    07:00 +22°C° 0 mm 3 mps 755 mmHg 72%
    08:00 +23°C° 0 mm 4 mps 755 mmHg 70%
    09:00 +25°C° 0 mm 5 mps 755 mmHg 68%
    10:00 +25°C° 0 mm 5 mps 755 mmHg 67%
    11:00 +26°C° 0 mm 5 mps 756 mmHg 66%
    12:00 +26°C° 0 mm 5 mps 756 mmHg 65%
    13:00 +26°C° 0 mm 5 mps 756 mmHg 64%
    14:00 +27°C° 0 mm 5 mps 756 mmHg 62%
    15:00 +26°C° 0 mm 6 mps 756 mmHg 64%
    16:00 +24°C° 0 mm 6 mps 756 mmHg 66%
    17:00 +24°C° 0 mm 6 mps 756 mmHg 68%
    18:00 +22°C° 0 mm 6 mps 756 mmHg 71%
    19:00 +21°C° 0 mm 5 mps 756 mmHg 75%
    20:00 +20°C° 0 mm 4 mps 757 mmHg 78%
    21:00 +19°C° 0 mm 4 mps 757 mmHg 80%
    22:00 +18°C° 0 mm 4 mps 757 mmHg 81%
    23:00 +18°C° 0 mm 4 mps 757 mmHg 83%

    Tomorrow, 23 August, Friday

    Time Temperature Precipitation Wind Pressure Humidity
    00:00 +17°C° 0 mm 4 mps 757 mmHg 84%
    01:00 +17°C° 0 mm 4 mps 757 mmHg 85%
    02:00 +17°C° 0 mm 4 mps 758 mmHg 86%
    03:00 +15°C° 0 mm 4 mps 757 mmHg 87%
    04:00 +15°C° 0 mm 4 mps 757 mmHg 88%
    05:00 +15°C° 0 mm 4 mps 757 mmHg 88%
    06:00 +17°C° 0 mm 4 mps 757 mmHg 84%
    07:00 +18°C° 0 mm 4 mps 757 mmHg 80%
    08:00 +19°C° 0 mm 5 mps 758 mmHg 76%
    09:00 +20°C° 0 mm 5 mps 758 mmHg 72%
    10:00 +21°C° 0 mm 5 mps 758 mmHg 69%
    11:00 +22°C° 0 mm 5 mps 758 mmHg 65%
    12:00 +23°C° 0 mm 5 mps 758 mmHg 62%
    13:00 +23°C° 0 mm 5 mps 758 mmHg 59%
    14:00 +25°C° 0 mm 5 mps 758 mmHg 56%
    15:00 +23°C° 0 mm 5 mps 757 mmHg 56%
    16:00 +23°C° 0 mm 5 mps 757 mmHg 55%
    17:00 +23°C° 0 mm 5 mps 757 mmHg 54%
    18:00 +22°C° 0 mm 4 mps 757 mmHg 58%
    19:00 +20°C° 0 mm 4 mps 758 mmHg 61%
    20:00 +19°C° 0 mm 3 mps 758 mmHg 65%
    21:00 +18°C° 0 mm 3 mps 758 mmHg 69%
    22:00 +17°C° 0 mm 3 mps 758 mmHg 73%
    23:00 +16°C° 0 mm 3 mps 758 mmHg 77%

    Day after tomorrow, 24 August, Saturday

    Time Temperature Precipitation Wind Pressure Humidity
    00:00 +16°C° 0 mm 3 mps 758 mmHg 79%
    01:00 +14°C° 0 mm 4 mps 758 mmHg 81%
    02:00 +14°C° 0 mm 4 mps 758 mmHg 83%
    03:00 +14°C° 0 mm 4 mps 758 mmHg 85%
    04:00 +13°C° 0 mm 4 mps 758 mmHg 88%
    05:00 +13°C° 0 mm 4 mps 758 mmHg 90%
    06:00 +15°C° 0 mm 4 mps 758 mmHg 83%
    07:00 +17°C° 0 mm 4 mps 758 mmHg 75%
    08:00 +19°C° 0 mm 4 mps 758 mmHg 68%
    09:00 +21°C° 0 mm 4 mps 758 mmHg 62%
    10:00 +23°C° 0 mm 4 mps 758 mmHg 56%
    11:00 +26°C° 0 mm 4 mps 758 mmHg 50%
    12:00 +27°C° 0 mm 4 mps 757 mmHg 48%
    13:00 +27°C° 0 mm 4 mps 757 mmHg 46%
    14:00 +28°C° 0 mm 4 mps 757 mmHg 44%
    15:00 +27°C° 0 mm 4 mps 757 mmHg 45%
    16:00 +27°C° 0 mm 4 mps 757 mmHg 47%
    17:00 +26°C° 0 mm 4 mps 756 mmHg 49%
    18:00 +23°C° 0 mm 4 mps 756 mmHg 54%
    19:00 +21°C° 0 mm 3 mps 757 mmHg 59%
    20:00 +19°C° 0 mm 3 mps 757 mmHg 65%
    21:00 +19°C° 0 mm 3 mps 757 mmHg 67%
    22:00 +18°C° 0 mm 3 mps 757 mmHg 69%
    23:00 +17°C° 0 mm 2 mps 757 mmHg 71%

    25 August, Sunday

    Time Temperature Precipitation Wind Pressure Humidity
    00:00 +16°C° 0 mm 2 mps 757 mmHg 72%
    01:00 +16°C° 0 mm 3 mps 757 mmHg 74%
    02:00 +14°C° 0 mm 3 mps 756 mmHg 75%
    03:00 +14°C° 0 mm 3 mps 756 mmHg 76%
    04:00 +13°C° 0 mm 3 mps 756 mmHg 77%
    05:00 +13°C° 0 mm 3 mps 756 mmHg 78%
    06:00 +16°C° 0 mm 3 mps 756 mmHg 71%
    07:00 +18°C° 0 mm 3 mps 756 mmHg 65%
    08:00 +20°C° 0 mm 3 mps 756 mmHg 58%
    09:00 +21°C° 0 mm 3 mps 756 mmHg 52%
    10:00 +24°C° 0 mm 3 mps 756 mmHg 46%
    11:00 +26°C° 0 mm 3 mps 756 mmHg 40%
    12:00 +27°C° 0 mm 3 mps 756 mmHg 38%
    13:00 +27°C° 0 mm 3 mps 756 mmHg 35%
    14:00 +28°C° 0 mm 3 mps 756 mmHg 33%
    15:00 +27°C° 0 mm 3 mps 756 mmHg 35%
    16:00 +27°C° 0 mm 3 mps 756 mmHg 38%
    17:00 +27°C° 0 mm 3 mps 755 mmHg 40%
    18:00 +24°C° 0 mm 3 mps 756 mmHg 47%
    19:00 +21°C° 0 mm 3 mps 756 mmHg 53%
    20:00 +19°C° 0 mm 3 mps 756 mmHg 60%
    21:00 +18°C° 0 mm 3 mps 756 mmHg 64%
    22:00 +17°C° 0 mm 3 mps 757 mmHg 69%
    23:00 +17°C° 0 mm 3 mps 757 mmHg 73%

    26 August, Monday

    Time Temperature Precipitation Wind Pressure Humidity
    00:00 +16°C° 0 mm 3 mps 757 mmHg 76%
    01:00 +16°C° 0 mm 3 mps 757 mmHg 79%
    02:00 +14°C° 0 mm 3 mps 757 mmHg 82%
    03:00 +14°C° 0 mm 3 mps 757 mmHg 85%
    04:00 +13°C° 0 mm 3 mps 757 mmHg 87%
    05:00 +13°C° 0 mm 3 mps 757 mmHg 90%
    06:00 +16°C° 0 mm 3 mps 757 mmHg 81%
    07:00 +18°C° 0 mm 3 mps 758 mmHg 73%
    08:00 +20°C° 0 mm 3 mps 758 mmHg 65%
    09:00 +22°C° 0 mm 3 mps 758 mmHg 57%
    10:00 +25°C° 0 mm 3 mps 758 mmHg 50%
    11:00 +27°C° 0 mm 3 mps 758 mmHg 42%
    12:00 +27°C° 0 mm 4 mps 758 mmHg 40%
    13:00 +28°C° 0 mm 4 mps 758 mmHg 38%
    14:00 +29°C° 0 mm 4 mps 758 mmHg 36%
    15:00 +28°C° 0 mm 4 mps 758 mmHg 39%
    16:00 +28°C° 0 mm 4 mps 757 mmHg 42%
    17:00 +27°C° 0 mm 4 mps 757 mmHg 45%
    18:00 +25°C° 0 mm 4 mps 757 mmHg 54%
    19:00 +22°C° 0 mm 4 mps 757 mmHg 63%
    20:00 +20°C° 0 mm 3 mps 757 mmHg 73%
    21:00 +19°C° 0 mm 3 mps 758 mmHg 76%
    22:00 +19°C° 0 mm 3 mps 758 mmHg 79%
    23:00 +18°C° 0 mm 3 mps 758 mmHg 82%

    27 August, Tuesday

    Time Temperature Precipitation Wind Pressure Humidity
    00:00 +17°C° 0 mm 3 mps 758 mmHg 81%
    01:00 +17°C° 0 mm 3 mps 758 mmHg 80%
    02:00 +17°C° 0 mm 3 mps 758 mmHg 79%
    03:00 +16°C° 0 mm 3 mps 758 mmHg 77%
    04:00 +16°C° 0 mm 3 mps 758 mmHg 74%
    05:00 +15°C° 0 mm 2 mps 758 mmHg 72%
    06:00 +17°C° 0 mm 3 mps 758 mmHg 66%
    07:00 +19°C° 0 mm 3 mps 758 mmHg 59%
    08:00 +21°C° 0 mm 3 mps 758 mmHg 53%
    09:00 +24°C° 0 mm 3 mps 758 mmHg 49%
    10:00 +26°C° 0 mm 3 mps 758 mmHg 45%
    11:00 +27°C° 0 mm 3 mps 758 mmHg 40%
    12:00 +28°C° 0 mm 3 mps 758 mmHg 39%
    13:00 +28°C° 0 mm 3 mps 758 mmHg 38%
    14:00 +29°C° 0 mm 2 mps 757 mmHg 36%
    15:00 +28°C° 0 mm 3 mps 757 mmHg 38%
    16:00 +28°C° 0 mm 3 mps 757 mmHg 39%
    17:00 +28°C° 0 mm 3 mps 757 mmHg 40%
    18:00 +26°C° 0 mm 3 mps 757 mmHg 45%
    19:00 +22°C° 0 mm 3 mps 757 mmHg 50%
    20:00 +20°C° 0 mm 3 mps 757 mmHg 55%
    21:00 +19°C° 0 mm 3 mps 757 mmHg 54%
    22:00 +19°C° 0 mm 3 mps 757 mmHg 53%
    23:00 +18°C° 0 mm 3 mps 757 mmHg 52%
    Show more